Regional Weather Roundup
Issued by NWS

Home | Current Version | Previous Version | Graphics & Text | Print | Product List | Glossary On
Versions: 1 2 3 4 5 6 7 8 9 10 11 12 13 14 15 16 17 18 19 20 21 22 23 24 25 26 27 28 29 30 31 32 33 34 35 36 37 38 39 40 41 42 43 44 45 46 47 48 49 50
000
ASUS43 KDMX 291407
RWRIA

WEATHER ROUNDUP FOR IOWA
NATIONAL WEATHER SERVICE DES MOINES IA
900 AM CDT WED JUL 29 2015

NOTE: "FAIR" INDICATES FEW OR NO CLOUDS BELOW 12,000 FEET WITH NO
SIGNIFICANT WEATHER AND/OR OBSTRUCTIONS TO VISIBILITY.

* - THESE STATIONS ARE NOT NWS STATIONS...THUS NOT UNDER NWS
QUALITY CONTROL.  THEY ALSO DO NOT REPORT WEATHER SUCH
AS PRECIPITATION OR FOG.

IAZ001>003-012>014-020>022-031>034-043>046-291500-
   NORTHWEST IOWA

CITY           SKY/WX    TMP DP  RH WIND       PRES   REMARKS
CARROLL *      SUNNY     72  64  78 W5        30.14S
CHEROKEE *     SUNNY     64  64 100 SW3       30.14S
DENISON *      SUNNY     68  63  83 SW3       30.15R
LE MARS *      SUNNY     66  63  88 S6        30.15R
ORANGE CITY *  SUNNY     66  57  72 W7        30.14R
SHELDON *      SUNNY     68  55  64 SW9       30.12R
SIOUX CITY     SUNNY     68  60  75 CALM      30.15R
SPENCER        SUNNY     69  56  62 W10       30.12R
STORM LAKE *   SUNNY     68  61  77 W7        30.15R
$$

IAZ055>058-069>071-079>083-090>094-291500-
   SOUTHWEST IOWA

CITY           SKY/WX    TMP DP  RH WIND       PRES   REMARKS
ATLANTIC *     SUNNY     72  64  78 N5        30.16R
AUDUBON *      SUNNY     72  64  78 CALM      30.16S
CLARINDA *     SUNNY     73  72  94 CALM      30.16S
COUNCIL BLFS * SUNNY     72  64  78 CALM      30.18R
CRESTON *      SUNNY     73  68  83 NW10      30.15R
HARLAN  *      SUNNY     70  70 100 CALM      30.20S
LAMONI           N/A    N/A N/A N/A MISG      30.12R
RED OAK *      SUNNY     72  66  83 CALM      30.17R
SHENANDOAH *   SUNNY     72  68  88 CALM      30.17R
$$

IAZ047>049-059>061-072>074-084-291500-
   CENTRAL IOWA

CITY           SKY/WX    TMP DP  RH WIND       PRES   REMARKS
AMES           SUNNY     73  62  68 W7        30.10R
ANKENY *       SUNNY     75  61  60 NW6       30.10R
CHARITON *     PTSUNNY   75  68  78 NW9       30.11R
DES MOINES     PTSUNNY   75  61  61 NW7       30.11R
GRINNELL*      MOSUNNY   73  63  68 NW9       30.09S
KNOXVILLE *    MOSUNNY   73  66  78 NW9       30.09R
MARSHALLTOWN     N/A     72  61  68 NW9       30.08R
PELLA *        MOSUNNY   73  68  83 NW8       30.11R
PERRY *          N/A     61  55  82 W6        30.13R
$$

IAZ004>006-015-016-023>025-035-036-291500-
   NORTH CENTRAL IOWA

CITY           SKY/WX    TMP DP  RH WIND       PRES   REMARKS
ALGONA *       SUNNY     70  55  60 W10       30.10S
CLARION *      SUNNY     70  59  68 W10       30.09S
ESTHERVILLE    SUNNY     66  57  72 SW9       30.10R
FORT DODGE *   SUNNY     70  57  64 W6        30.12R
MASON CITY     SUNNY     72  56  57 W15       30.08S
FOREST CITY *  SUNNY     70  54  56 W8        30.08R
IOWA FALLS *     N/A     72  57  60 W8        30.09S
$$

IAZ007>011-017>019-026>030-037>042-050>054-066-291500-
   NORTHEAST IOWA

CITY           SKY/WX    TMP DP  RH WIND       PRES   REMARKS
CEDAR RAPIDS   PTSUNNY   72  67  84 NW7       30.06R
CHARLES CITY * SUNNY     72  57  60 W13       30.06S
CLINTON *      CLOUDY    75  68  78 NW8       30.05R
DECORAH *      SUNNY     70  57  64 VRB7      30.03R
DUBUQUE        PTSUNNY   75  60  59 NW10      30.04R
MONTICELLO *   SUNNY     73  64  73 NW7       30.04R
OELWEIN *      SUNNY     72  61  68 W8        30.06S
WATERLOO       SUNNY     74  59  59 NW7       30.04S
$$

IAZ064-065-067-068-078-291500-
   EAST CENTRAL IOWA

CITY           SKY/WX    TMP DP  RH WIND       PRES   REMARKS
DAVENPORT      CLOUDY    75  70  84 NW6       30.04R
IOWA CITY      PTSUNNY   74  65  73 NW7       30.06R
MT. PLEASANT * PTSUNNY   77  66  69 NW13G21   30.06R
MUSCATINE *    SUNNY     75  68  78 NW6       30.05R
QUAD CITIES    CLOUDY    77  68  73 NW7       30.03R
$$

IAZ062-063-075>077-085>089-095>099-291500-
   SOUTHEAST IOWA

CITY           SKY/WX    TMP DP  RH WIND       PRES   REMARKS
BURLINGTON     PTSUNNY   77  69  76 N10       30.04S
FAIRFIELD *    SUNNY     75  66  73 N9        30.07R
FORT MADISON * SUNNY     75  72  88 N12       30.06R
KEOKUK *       SUNNY     75  70  83 N12       30.04R
OSKALOOSA *      N/A     73  66  78 NW9       30.09R
CENTERVILLE *  SUNNY     73  68  83 NW10      30.11R
OTTUMWA        MOSUNNY   75  68  78 NW13      30.07R
WASHINGTON *   SUNNY     75  68  78 N8G14     30.08R
$$

ABBREVIATIONS USED IN REMARKS
   TC - TEMPERATURES IN CELSIUS
  WCI - WIND CHILL INDEX
   HX - HEAT INDEX
  VSB - VISIBILITY
$$



USA.gov is the U.S. government's official web portal to all federal, state and local government web resources and services.